Lapse_Rate
5.1 5.0 5.0 4.6 4.8 5.1 5.3 4.9 4.7 4.6 4.5 4.2 4.0 3.4 3.1 3.2 3.0 3.2 3.2 3.5 4.5 5.2 6.4 6.0 6.2 6.6 6.6 6.6 6.5 7.3 6.9 6.6 6.9 6.6 6.5 6.8 6.4 6.5 6.1 6.2 6.2 6.4 6.4 6.6 6.3 6.8 6.9
5.6 5.4 5.1 4.8 5.0 5.1 5.4 4.9 4.7 4.5 4.5 4.3 4.1 3.7 3.2 3.1 3.2 3.2 3.3 3.5 4.5 5.4 6.4 6.2 6.3 6.9 6.6 6.6 6.7 7.4 7.2 6.9 6.4 6.8 6.6 6.6 6.2 6.2 6.4 6.4 6.0 6.0 6.0 6.4 5.8 6.9 6.7
5.7 5.4 5.3 5.3 5.2 5.1 5.5 4.9 4.8 4.9 4.4 4.4 4.2 3.7 3.4 3.2 3.3 3.1 3.5 3.7 4.8 5.3 6.1 6.3 6.3 6.9 6.7 6.5 7.0 7.8 7.4 7.2 6.7 6.4 6.7 6.8 6.1 6.4 6.5 6.6 6.0 6.1 6.0 6.0 6.1 6.5 6.5
6.1 5.8 5.4 5.3 5.3 5.2 5.6 5.3 4.6 4.9 4.5 4.5 4.2 3.7 3.5 3.4 3.4 3.2 3.5 3.8 4.8 5.1 6.0 6.4 6.3 6.8 6.8 6.6 6.7 7.3 7.5 6.8 6.4 6.2 6.3 6.2 6.2 6.3 6.5 6.3 5.9 5.9 5.4 5.6 5.6 5.6 6.9
6.5 6.1 5.5 5.4 5.4 5.4 5.6 5.4 5.1 5.0 4.7 4.7 4.2 3.7 3.6 3.6 3.5 3.2 3.5 3.9 4.9 5.0 5.7 6.3 6.1 6.9 6.5 6.6 6.8 7.1 7.2 6.9 6.5 6.6 6.5 6.0 6.3 6.5 6.8 6.2 6.2 6.1 5.7 5.7 5.7 6.3 5.4
6.3 6.5 5.9 5.7 5.5 5.5 5.7 5.4 5.5 5.2 4.9 4.8 4.4 3.8 3.6 3.7 3.5 3.3 3.6 3.9 4.7 5.1 5.7 6.2 6.3 6.3 6.6 6.5 6.6 7.2 7.1 6.5 6.4 6.6 6.2 6.1 6.4 6.2 6.5 6.7 6.4 6.1 5.8 5.9 6.0 6.7 6.4
6.6 6.5 6.4 5.9 5.7 5.5 5.8 5.5 5.0 5.0 5.1 4.8 4.5 3.9 3.7 3.8 3.5 3.4 3.6 3.9 4.7 5.7 5.8 5.8 5.9 6.2 6.6 6.6 6.5 7.3 7.0 6.4 6.5 6.4 6.2 6.0 6.5 6.2 6.6 6.5 7.3 6.6 5.9 6.6 7.1 6.8 6.3
7.1 6.6 6.3 6.1 5.7 5.3 5.6 5.6 5.0 5.2 5.2 4.9 4.6 3.9 3.7 3.8 3.5 3.5 3.7 4.0 4.8 5.5 5.7 5.7 6.0 6.5 6.6 6.6 6.7 6.8 6.9 6.5 6.3 6.4 6.1 6.1 6.0 6.4 6.7 7.4 7.8 7.6 6.5 6.2 6.5 6.6 6.6
7.3 7.2 6.5 6.3 5.8 5.6 5.6 5.4 5.1 5.2 5.4 5.0 4.6 3.9 3.7 3.7 3.6 3.4 3.8 3.9 4.6 5.5 5.8 5.7 6.2 6.6 6.7 6.6 6.4 6.6 6.9 6.7 6.5 6.2 6.2 6.4 6.5 6.5 6.6 7.2 7.5 7.8 7.7 7.0 7.0 6.2 6.3
7.6 7.3 7.2 6.3 6.5 5.8 5.4 5.4 5.1 5.4 5.7 5.1 4.6 4.0 3.7 3.6 3.6 3.5 3.6 3.7 4.6 5.4 5.6 5.9 6.2 6.5 6.8 6.6 6.3 6.6 6.5 6.7 6.6 6.7 6.6 6.5 6.5 6.7 7.3 7.2 7.8 7.6 7.7 7.4 6.9 6.6 7.0
7.5 7.6 7.3 6.6 5.8 5.3 5.6 5.4 5.2 5.4 5.8 5.1 4.7 4.0 3.6 3.6 3.5 3.4 3.4 3.6 4.6 5.4 5.9 6.2 6.4 6.6 6.5 6.7 6.4 6.5 6.5 6.5 6.4 6.4 6.8 6.5 6.7 6.9 7.1 7.6 7.8 7.5 7.6 7.5 7.1 7.6 7.6
7.0 7.4 7.0 6.8 5.8 5.6 5.5 5.4 5.3 5.5 5.7 5.1 4.8 4.1 3.6 3.7 3.5 3.3 3.4 3.5 4.4 5.1 5.6 6.1 6.5 6.8 6.4 6.2 6.6 6.4 6.7 6.4 6.6 6.6 6.5 6.6 6.8 6.6 6.6 6.9 6.8 7.0 7.3 7.0 7.2 7.5 6.8
6.8 6.7 6.6 6.9 6.2 5.2 5.2 5.5 5.4 5.4 5.7 5.1 4.8 4.3 3.6 3.7 3.4 3.2 3.4 3.5 3.9 5.0 6.1 6.1 6.0 6.5 6.5 5.7 6.2 6.1 6.5 6.5 6.5 6.6 6.5 6.4 6.5 6.5 6.6 7.0 7.3 7.4 7.4 7.2 6.8 6.8 6.7
4.8 5.8 6.1 6.6 5.3 5.1 5.2 5.3 5.6 5.4 5.7 5.2 4.7 4.3 3.7 3.6 3.4 3.2 3.3 3.4 3.4 4.7 5.7 5.7 5.8 6.5 6.7 6.1 6.0 6.1 6.3 6.4 6.8 6.9 6.7 6.4 6.2 6.3 6.7 6.8 7.1 7.3 7.9 7.9 7.4 6.6 6.8
3.8 4.4 6.1 6.2 5.4 5.1 5.3 5.4 5.4 5.4 5.6 5.2 4.6 4.4 3.8 3.5 3.3 3.1 3.2 3.1 3.4 4.4 5.7 5.7 5.9 6.3 6.1 6.7 6.1 6.2 6.6 6.6 6.7 6.9 6.7 6.6 6.2 6.5 6.6 7.0 7.3 7.4 7.5 7.3 7.4 7.6 7.1
3.9 4.3 6.1 6.3 5.6 5.2 5.1 5.4 5.4 5.4 5.5 5.2 4.5 4.5 3.9 3.5 3.2 3.1 3.1 2.8 3.1 4.1 5.7 6.0 6.2 6.5 6.5 6.3 6.1 6.0 6.2 6.5 6.7 6.5 6.6 6.5 6.3 6.2 6.4 6.7 7.2 7.4 7.2 7.0 7.1 6.4 7.5
3.9 4.3 5.6 6.1 5.5 5.2 4.9 5.2 5.3 5.3 5.5 5.2 4.6 4.5 3.9 3.5 3.2 3.2 3.2 2.7 2.8 3.8 5.3 5.7 6.2 6.4 6.6 6.4 6.1 6.1 6.0 6.2 6.3 6.6 6.9 6.6 6.6 6.2 6.5 6.5 6.8 6.9 6.8 7.1 7.4 7.5 6.4
4.5 4.1 4.8 5.7 5.4 5.0 4.9 5.1 5.4 5.3 5.5 5.1 4.6 4.4 3.8 3.5 3.2 3.3 3.0 2.3 2.8 3.1 4.7 5.7 6.2 6.2 6.4 6.4 6.3 6.4 6.2 6.3 6.2 6.3 6.5 6.5 6.6 6.0 6.3 6.3 6.7 6.6 6.8 6.9 7.1 7.0 7.4
4.4 3.9 4.7 5.2 5.2 5.0 4.8 4.9 5.3 5.3 5.4 5.0 4.7 4.3 3.7 3.6 3.3 3.3 2.6 2.3 2.5 2.7 4.0 5.5 6.0 6.4 6.4 6.2 6.2 6.3 5.9 6.1 6.0 6.2 6.2 6.4 6.2 6.1 6.2 6.6 6.8 6.7 7.1 7.1 7.2 7.2 6.9
4.5 4.8 5.0 5.6 5.4 5.1 4.9 5.1 5.2 5.1 5.3 5.0 4.6 4.3 4.0 3.7 3.3 3.2 2.1 1.9 2.1 2.6 3.3 4.3 5.5 6.4 6.6 6.3 6.3 6.1 5.9 6.0 5.9 5.9 6.2 6.2 6.4 6.7 6.8 6.9 7.1 7.0 7.1 6.8 6.7 6.4 6.8
4.6 4.8 5.4 5.5 5.2 4.9 5.0 5.0 4.9 5.3 5.3 5.0 4.7 4.5 3.9 3.7 3.5 3.1 2.0 2.1 2.1 2.5 3.1 3.6 4.8 6.1 6.5 6.4 6.4 6.2 6.1 6.1 5.9 6.1 6.1 6.3 6.3 6.5 6.5 6.8 6.9 6.9 6.7 6.5 6.5 6.9 6.2
4.4 5.0 4.9 5.2 5.0 4.9 5.0 5.0 5.1 5.2 5.4 5.1 4.8 4.4 3.7 3.7 3.5 3.0 2.3 2.3 2.3 2.3 3.1 3.4 4.2 5.7 6.3 6.6 6.3 6.2 6.4 6.4 6.2 6.1 5.9 6.1 6.1 6.4 6.5 6.8 6.8 6.8 6.6 6.5 6.6 6.6 6.4
3.7 4.9 5.2 5.2 5.5 5.1 5.1 5.1 5.0 5.3 5.3 5.3 4.9 3.9 3.6 3.7 3.4 3.0 2.6 2.3 2.3 2.3 2.7 2.9 3.6 4.7 5.9 6.5 6.7 6.6 6.5 6.4 6.3 6.7 6.3 6.1 6.1 6.2 6.1 6.2 6.2 6.2 6.9 6.8 6.7 6.6 6.3
4.5 4.6 5.6 5.3 5.3 5.2 4.9 5.1 5.0 5.0 5.3 5.1 4.5 3.8 3.4 3.5 3.3 3.0 2.4 2.2 2.2 2.4 2.6 2.9 3.2 4.1 5.2 6.3 6.9 6.8 6.6 6.5 6.5 6.5 6.4 6.3 6.2 6.0 6.0 5.9 5.0 6.6 6.7 6.7 6.4 6.1 5.8
4.9 5.1 5.2 4.9 4.7 5.1 4.9 5.1 5.0 4.9 5.3 5.1 4.4 3.9 3.3 3.3 3.1 2.9 2.8 2.4 2.5 2.4 2.4 2.8 2.9 3.7 4.7 5.5 6.5 6.6 6.7 6.5 6.1 6.5 6.4 6.2 6.3 6.0 6.0 5.8 6.5 6.4 6.6 6.3 6.2 6.0 5.9
4.8 4.3 5.0 5.6 5.9 5.1 4.8 5.1 4.7 4.8 5.2 4.9 4.3 3.5 3.2 3.3 3.1 3.1 2.8 2.8 2.4 2.3 2.4 2.6 2.6 3.0 3.9 4.6 5.5 6.7 6.9 7.0 6.5 6.3 6.4 6.5 6.3 6.2 6.2 6.3 6.5 6.2 6.3 6.2 6.1 5.7 5.6
4.0 4.5 5.2 5.2 5.3 5.1 4.6 4.9 4.7 4.4 5.1 4.9 4.4 3.7 3.5 3.4 3.3 3.3 3.0 2.8 2.5 2.3 2.3 2.4 2.7 2.6 3.2 4.3 5.0 6.0 6.9 7.1 6.8 6.6 6.6 6.3 6.3 6.2 6.2 6.1 6.3 5.7 6.2 6.2 6.1 5.7 5.5
4.2 5.2 5.0 5.1 5.2 4.9 4.3 4.8 4.2 4.9 4.9 4.7 4.4 3.7 3.6 3.5 3.5 3.5 3.4 3.3 2.8 2.6 2.4 2.8 2.4 2.6 3.0 3.6 4.7 5.7 6.5 7.0 7.2 6.9 6.6 6.6 6.4 6.3 6.3 6.2 5.9 6.1 6.1 6.1 6.1 5.9 5.9
4.0 4.7 4.2 3.7 4.7 4.5 4.4 4.9 4.0 4.8 4.9 4.7 4.1 3.9 3.5 3.1 3.4 3.2 3.2 3.1 2.9 3.1 3.0 2.7 2.9 3.0 3.2 3.4 4.0 5.1 6.4 6.8 7.1 7.0 6.8 6.7 6.6 6.8 6.6 6.6 6.5 6.3 6.4 6.3 6.2 6.0 6.1
Wind_Speed
19 16 15 13 12 11 13 12 14 14 14 15 16 18 14 14 16 18 14 11 12 12 12 13 15 14 10 6 4 8 9 9 8 3 7 8 11 12 14 15 12 7 11 13 5 19 16
21 19 17 15 13 12 13 13 14 16 15 14 16 17 15 15 15 16 17 12 13 13 13 13 15 11 10 9 5 11 10 1 3 2 2 8 4 11 11 14 14 8 10 14 3 4 3
23 23 19 16 15 14 14 14 13 13 16 14 15 17 16 15 15 16 17 15 14 13 13 13 11 7 10 9 3 4 5 5 3 3 9 4 7 5 8 15 11 9 4 6 4 3 5
26 24 23 17 17 14 14 15 14 13 15 16 15 17 16 15 16 15 16 16 16 15 14 12 8 9 6 4 4 8 7 2 2 7 3 11 7 7 5 6 17 12 9 8 10 9 4
26 28 23 19 18 15 15 16 13 12 14 14 14 17 14 14 17 16 17 16 17 15 13 9 6 8 6 2 3 7 5 6 5 3 0 6 3 4 9 13 8 8 5 3 6 5 3
24 25 14 20 18 17 16 16 14 12 13 14 14 15 13 16 16 16 18 17 15 10 8 9 8 6 5 3 0 6 9 3 2 2 4 4 1 4 6 12 11 5 6 5 8 7 4
24 21 17 22 21 18 16 16 14 11 13 14 12 13 14 14 15 14 13 6 3 4 7 6 8 9 9 3 4 6 4 4 4 2 2 3 2 6 13 12 10 17 6 12 13 10 7
30 24 22 23 22 18 17 17 14 12 12 12 11 14 13 14 14 14 5 4 5 1 6 4 6 5 2 4 2 5 3 5 2 2 7 2 7 10 11 12 4 12 18 9 7 10 10
30 31 24 21 23 21 19 18 14 12 11 11 11 12 11 14 11 7 7 4 2 5 4 3 2 3 1 1 4 6 5 3 2 5 2 4 6 6 4 4 9 5 7 10 7 4 14
32 34 28 21 24 22 20 18 15 11 10 9 10 10 11 10 5 2 2 5 1 3 2 3 1 3 2 3 4 1 10 2 3 6 5 5 1 7 4 10 5 8 5 11 15 9 2
35 34 35 21 24 24 21 18 16 12 9 8 10 8 10 5 7 2 3 2 1 2 1 2 3 1 1 4 8 3 5 3 6 7 1 2 1 6 10 4 5 5 7 7 7 5 5
36 32 34 24 25 24 23 20 17 12 9 6 7 9 5 3 3 1 1 1 2 2 1 1 1 2 4 6 3 4 3 3 6 7 9 4 4 5 6 8 7 4 9 9 5 3 2
37 32 35 34 27 26 24 21 18 13 9 3 5 4 6 2 2 4 2 3 1 2 3 1 3 2 5 4 4 3 6 4 2 4 5 6 4 3 3 7 2 5 8 3 2 1 4
40 32 30 45 29 27 26 23 19 14 10 5 3 7 3 2 4 2 2 1 1 4 4 2 5 4 2 2 4 2 6 4 4 4 3 2 1 3 4 3 2 4 6 4 3 4 5
38 30 32 38 31 30 27 23 21 16 12 9 10 2 2 3 3 2 3 2 3 3 5 8 9 1 2 1 1 2 2 5 5 3 2 4 3 2 3 4 4 4 2 1 2 1 3
39 33 31 30 31 31 27 23 21 18 16 17 4 3 3 5 1 2 1 3 2 3 1 10 2 5 4 6 3 0 4 2 6 5 3 5 5 1 2 3 2 2 3 2 3 1 2
39 37 28 33 28 31 29 25 23 20 18 17 2 3 4 5 2 2 2 2 2 4 3 1 4 5 5 7 5 3 4 2 1 5 2 3 5 3 4 3 6 2 2 2 2 1 1
39 40 34 30 35 31 30 27 24 23 19 11 3 3 4 3 2 2 3 3 2 8 4 2 3 3 5 7 8 5 6 1 5 7 3 4 4 4 2 3 3 5 3 6 3 2 2
39 39 42 38 22 31 32 29 26 26 26 4 4 3 1 2 3 4 4 3 4 6 6 3 3 4 4 6 3 7 5 2 2 6 1 2 2 3 2 2 4 5 6 5 3 3 2
36 42 41 40 29 34 33 30 29 28 31 0 4 4 2 2 4 3 5 6 6 2 2 1 1 2 3 4 0 6 5 2 3 2 5 4 3 1 1 1 3 5 9 8 5 3 4
35 44 40 41 27 34 34 32 30 27 24 3 2 4 6 5 7 9 5 6 9 5 3 4 4 6 4 3 4 5 5 8 3 4 2 4 2 3 2 4 4 1 6 9 9 8 5
41 45 43 49 32 35 34 31 29 26 20 2 4 3 1 4 3 12 8 6 9 6 6 6 3 7 3 3 5 5 11 5 4 4 4 5 2 3 3 1 2 2 6 7 9 10 10
36 42 44 24 33 36 33 31 29 27 18 3 1 1 1 5 6 7 8 7 8 9 1 4 2 3 3 6 4 5 5 2 6 7 6 5 4 2 1 1 3 5 8 11 6 6 6
35 38 41 37 22 32 32 31 28 29 21 1 3 3 2 3 6 8 3 5 8 4 4 4 3 2 1 4 4 3 3 4 6 3 3 3 3 3 1 2 1 4 4 5 3 5 6
36 37 37 35 31 27 30 28 27 30 26 1 1 2 2 4 5 4 7 6 7 3 6 6 5 3 2 3 3 5 2 2 4 3 2 1 3 1 2 2 3 4 1 2 3 4 2
37 40 45 50 28 30 26 26 25 27 21 2 2 1 1 5 3 2 6 8 5 5 4 3 3 3 2 2 1 3 4 4 5 4 2 3 3 1 2 1 3 4 5 3 1 2 5
35 41 52 17 32 29 25 22 21 23 21 3 2 2 1 4 4 6 3 2 3 3 3 4 3 2 3 2 2 3 2 3 5 6 5 2 2 3 4 2 5 7 6 2 1 2 6
34 35 29 27 30 29 26 21 23 24 21 4 2 1 2 4 4 7 6 2 2 2 3 2 3 0 2 2 2 1 2 3 2 4 5 6 5 4 3 3 5 3 4 1 1 6 7
31 30 25 8 24 26 24 23 25 25 19 7 3 3 7 6 5 7 9 8 6 6 1 3 3 4 2 1 1 2 0 2 2 3 3 2 1 2 2 3 2 5 8 6 6 4 4
Wind_Direction
275 272 270 275 280 287 294 298 304 310 317 323 323 326 328 324 325 318 315 306 308 308 314 312 309 308 321 309 356 65 3 42 97 158 181 274 212 206 225 195 175 205 255 245 348 164 157
276 268 262 265 270 275 281 290 298 307 308 320 321 324 328 319 317 321 314 305 302 307 312 316 317 312 279 290 16 32 347 37 122 118 191 295 273 236 221 217 180 134 268 238 297 48 48
282 272 255 252 256 263 271 280 288 300 305 314 316 320 325 317 316 319 310 309 309 304 305 306 313 295 283 267 356 43 337 27 126 107 187 274 352 322 254 220 149 185 299 219 178 51 3
288 280 252 235 246 250 265 271 282 295 303 310 320 320 322 321 317 316 312 303 301 302 296 291 296 292 263 60 345 350 352 147 107 119 81 296 341 285 238 194 162 142 199 232 130 189 25
291 292 279 228 237 242 251 263 272 288 296 307 317 317 325 322 321 317 306 302 291 291 287 266 259 223 284 355 359 343 332 297 115 165 248 305 311 260 218 203 157 173 172 233 93 124 104
288 294 239 232 230 234 244 257 266 279 291 300 309 314 321 319 322 317 310 292 278 291 246 241 247 286 224 304 202 278 279 276 59 87 147 14 229 249 210 177 180 133 217 174 234 158 118
285 286 240 238 227 225 236 250 260 272 286 295 311 315 318 323 320 312 315 299 213 189 236 253 315 304 10 82 257 223 236 160 98 11 80 309 187 220 176 193 166 146 142 157 220 183 137
290 278 262 244 227 223 227 244 252 263 278 293 307 311 318 320 316 310 288 281 66 351 302 223 294 47 60 169 109 161 213 186 167 73 134 140 209 237 168 201 238 190 170 184 10 163 190
320 289 273 266 219 221 220 234 244 253 270 288 301 308 320 320 316 288 254 356 18 332 262 149 60 82 246 298 113 150 209 218 113 140 203 129 142 203 322 185 192 153 186 133 141 209 219
315 317 275 261 219 216 218 226 235 242 259 278 293 306 317 317 290 236 222 90 307 327 284 58 132 103 175 134 51 279 188 176 65 121 59 66 345 183 161 224 231 143 153 143 159 164 183
312 307 298 250 216 214 213 218 225 231 245 267 287 305 304 257 314 236 56 114 332 233 226 17 79 56 30 88 143 344 205 220 133 64 27 69 68 200 171 130 6 68 53 81 121 199 18
309 309 315 256 220 208 208 209 216 219 234 256 288 299 281 192 239 23 154 242 239 253 145 317 106 154 131 124 105 144 188 60 142 58 16 73 41 18 331 35 62 103 84 66 35 5 354
296 310 310 301 202 206 208 205 205 205 219 221 298 268 174 198 358 131 190 232 196 300 255 212 152 128 74 110 88 106 147 144 134 89 3 55 16 105 303 76 72 152 133 88 59 29 214
300 303 303 334 200 200 205 199 197 195 195 166 176 161 182 230 172 132 232 228 192 165 193 163 132 104 75 27 73 50 147 106 51 62 113 83 133 52 327 1 169 195 202 131 189 181 172
292 298 317 324 199 193 200 197 189 185 174 162 162 207 196 138 134 252 250 187 139 187 158 162 152 116 85 296 92 27 312 139 147 222 131 135 92 148 332 342 337 239 27 27 348 219 77
318 294 298 300 210 190 190 191 186 178 167 163 172 178 105 143 127 247 249 290 190 331 116 171 231 184 149 167 164 345 200 105 129 164 210 137 106 284 103 288 266 305 149 74 4 69 233
330 313 307 302 241 183 181 182 181 178 172 175 209 153 127 126 220 224 201 239 222 169 306 275 245 150 144 151 164 216 180 8 178 163 341 273 113 133 110 233 183 172 122 256 165 178 186
326 321 317 307 297 177 172 175 183 175 167 156 189 138 123 156 219 226 221 178 309 157 198 286 297 191 171 147 179 175 177 347 226 145 207 73 92 155 148 21 47 331 229 207 132 235 253
327 319 320 313 252 168 165 173 183 177 171 162 150 115 104 227 204 206 261 221 223 163 197 191 216 320 325 152 130 116 128 328 124 177 104 196 134 110 35 303 191 219 214 234 246 30 203
329 326 320 316 188 163 164 176 183 186 196 336 142 136 139 203 283 263 220 196 177 136 270 187 51 275 210 135 356 142 128 178 158 109 44 9 213 60 108 62 161 189 205 214 173 131 208
331 327 321 313 198 163 168 177 185 189 197 219 215 159 166 177 215 210 248 214 182 158 236 190 194 251 212 153 146 125 111 139 174 113 71 12 321 83 261 16 44 353 196 220 220 212 198
331 324 320 309 199 167 170 179 184 184 178 254 158 147 145 174 149 185 199 222 186 149 166 176 265 184 181 63 27 158 143 172 180 156 172 186 227 81 314 119 319 267 266 258 242 234 237
326 320 324 292 179 167 172 179 183 178 173 197 79 80 209 131 167 182 189 195 193 135 49 41 138 152 185 95 360 345 29 11 131 155 197 167 131 138 220 102 260 281 224 220 228 235 230
325 317 327 327 196 170 174 183 183 182 195 66 195 136 190 162 189 203 175 135 143 128 155 101 302 303 69 262 247 247 78 68 108 43 190 174 138 124 184 290 258 224 61 26 199 225 232
319 314 314 304 306 187 176 184 187 186 195 41 79 144 186 129 171 86 145 142 102 137 93 113 47 32 285 246 151 133 149 164 143 146 210 199 138 198 162 209 270 161 205 140 176 190 107
315 316 307 292 268 180 181 181 192 188 180 110 73 43 30 120 66 333 171 150 160 144 137 100 78 301 250 240 229 174 191 196 157 134 324 308 276 256 190 278 279 131 124 80 97 153 68
318 317 309 243 168 165 177 185 191 185 178 111 72 19 47 101 13 343 101 173 4 98 102 119 134 115 339 161 211 205 178 22 161 180 160 168 243 212 233 240 297 144 138 146 132 189 53
315 313 315 156 159 162 169 177 178 170 165 118 108 300 57 84 34 36 15 69 27 356 133 125 128 10 32 202 196 266 181 206 60 105 161 171 172 190 195 214 265 76 64 26 56 60 52
305 309 314 187 164 160 161 168 162 160 159 156 105 90 65 72 91 93 72 48 37 25 3 46 82 36 50 109 262 245 250 104 247 173 354 230 158 202 212 181 102 63 105 83 59 47 10